IU5NOC-10 Weather Reports


time (UTC)temp
F
wind
direction
speed
knots
gust
knots
rain 1hr
in
rain 24hr
in
rain mn
in
humidity
%
barometer
mb
20260508004649 50 17 0.0 0.0 0.00 0.01 0.00 8 988.2
20260508003148 50 12 0.0 0.0 0.00 0.01 0.00 8 988.5
20260508001648 50 356 0.0 0.0 0.00 0.01 0.00 8 988.6
20260508000148 51 354 0.0 0.0 0.00 0.01 0.00 8 988.9
20260507234649 51 342 0.0 0.9 0.00 0.01 0.00 8 989.2
20260507233149 51 9 0.0 0.9 0.00 0.01 0.00 8 989.3
20260507231648 51 18 0.0 0.0 0.00 0.01 0.00 8 989.2
20260507230148 52 22 0.0 0.9 0.00 0.01 0.00 8 989.3
20260507224648 53 269 1.7 2.6 0.00 0.01 0.00 8 989.4
20260507223149 53 272 1.7 2.6 0.00 0.01 0.00 8 989.2
20260507221701 53 271 1.7 2.6 0.00 0.01 0.00 8 989.5
20260507221648 53 214 1.7 2.6 0.00 0.01 0.00 8 989.5
20260507220201 54 36 0.0 0.9 0.00 0.01 0.00 8 989.2
20260507220148 54 38 0.0 0.9 0.00 0.01 0.00 8 989.2
20260507214648 54 224 1.7 4.3 0.00 0.01 0.01 8 989.2
20260507213148 55 271 0.9 1.7 0.00 0.01 0.01 7 989.0
20260507211649 56 307 0.9 1.7 0.00 0.01 0.01 7 989.0
20260507210148 55 1 0.0 0.9 0.00 0.01 0.01 7 989.2
20260507204648 56 2 0.0 0.0 0.00 0.01 0.01 7 989.4
20260507203148 57 196 2.6 4.3 0.00 0.01 0.01 7 989.2
20260507201701 57 182 2.6 3.5 0.00 0.01 0.01 7 989.2
20260507201649 57 194 1.7 3.5 0.00 0.01 0.01 7 989.2
20260507200201 57 163 2.6 3.5 0.00 0.01 0.01 7 989.0
20260507200149 57 160 1.7 3.5 0.00 0.01 0.01 7 989.0
20260507194701 58 179 1.7 4.3 0.00 0.03 0.01 7 989.5
20260507194648 58 175 2.6 4.3 0.00 0.03 0.01 7 989.5
20260507193148 58 9 0.0 0.0 0.00 0.03 0.01 6 989.2
20260507191648 60 348 0.0 0.9 0.00 0.03 0.01 6 989.0
20260507190202 60 355 0.0 1.7 0.00 0.03 0.01 6 989.0
20260507190149 61 334 0.9 1.7 0.00 0.03 0.01 6 989.0
20260507184701 61 345 0.0 1.7 0.00 0.17 0.01 6 988.8
20260507184649 61 353 0.0 1.7 0.00 0.17 0.01 6 988.8
20260507183202 62 44 0.0 0.0 0.00 0.17 0.01 5 988.8
20260507183148 62 34 0.0 0.0 0.00 0.17 0.01 5 988.8
20260507181648 63 8 0.0 0.0 0.00 0.17 0.01 6 988.7
20260507180201 65 20 0.0 0.9 0.00 0.17 0.01 5 988.6
20260507180148 65 19 0.0 0.9 0.00 0.17 0.01 5 988.6
20260507174649 67 15 0.0 0.9 0.00 0.39 0.01 5 988.3
20260507173149 68 8 1.7 4.3 0.00 0.39 0.01 4 988.3
20260507171648 70 42 0.0 2.6 0.00 0.39 0.01 4 988.2
20260507170148 70 16 0.0 2.6 0.00 0.39 0.01 4 988.1
20260507164648 72 333 0.0 2.6 0.00 0.54 0.01 4 988.3
20260507163202 72 3 0.0 2.6 0.00 0.54 0.01 4 988.2
20260507163149 72 7 0.0 2.6 0.00 0.54 0.01 4 988.2
20260507161702 71 28 1.7 4.3 0.00 0.54 0.01 4 988.3
20260507161648 71 22 2.6 4.3 0.00 0.54 0.01 4 988.3
20260507160201 73 15 0.0 2.6 0.00 0.54 0.01 4 988.2
20260507160148 73 8 0.9 3.5 0.00 0.54 0.01 4 988.2
20260507154701 74 1 0.9 1.7 0.00 0.54 0.01 4 988.2
20260507154648 74 3 0.0 1.7 0.00 0.54 0.01 4 988.2
20260507153202 73 321 0.0 1.7 0.00 0.54 0.01 4 988.0
20260507153148 73 339 0.0 2.6 0.00 0.54 0.01 4 988.0
20260507151701 72 235 1.7 2.6 0.00 0.54 0.01 4 988.3
20260507151649 72 316 0.9 2.6 0.00 0.54 0.01 4 988.3
20260507150202 73 292 2.6 3.5 0.00 0.54 0.01 4 988.2
20260507150148 73 280 1.7 3.5 0.00 0.54 0.01 4 988.2
20260507144702 75 17 0.0 1.7 0.00 0.56 0.01 4 988.5
20260507144648 75 10 0.0 1.7 0.00 0.56 0.01 4 988.5
20260507143201 76 259 2.6 5.2 0.00 0.56 0.01 4 988.5
20260507143148 76 277 1.7 5.2 0.00 0.56 0.01 4 988.5
20260507141649 71 237 2.6 2.6 0.00 0.56 0.01 4 988.5
20260507140149 72 257 1.7 1.7 0.00 0.56 0.01 4 988.7
20260507134648 75 342 1.7 5.2 0.00 0.56 0.01 4 988.7
20260507133148 75 12 0.0 4.3 0.00 0.56 0.01 4 989.0
20260507131648 72 67 0.9 7.0 0.00 0.56 0.01 4 989.3
20260507130149 71 148 0.9 4.3 0.00 0.56 0.01 4 989.3
20260507124649 76 311 1.7 4.3 0.00 0.62 0.01 4 989.4
20260507123201 71 5 0.0 2.6 0.00 0.62 0.01 4 989.6
20260507123148 72 354 0.0 2.6 0.00 0.62 0.01 4 989.6
20260507121701 71 7 2.6 3.5 0.00 0.62 0.01 4 989.5
20260507121648 70 319 1.7 3.5 0.00 0.62 0.01 5 989.5
20260507120201 73 17 0.0 2.6 0.00 0.62 0.01 4 989.7
20260507120148 73 14 0.0 2.6 0.00 0.62 0.01 4 989.7
20260507114702 73 15 1.7 3.5 0.00 0.62 0.01 4 989.6
20260507114649 74 358 1.7 7.0 0.00 0.62 0.01 4 989.6
20260507113201 71 355 0.9 4.3 0.00 0.62 0.01 4 989.9
20260507113148 71 4 0.9 4.3 0.00 0.62 0.01 5 989.9
20260507111703 74 343 1.7 3.5 0.00 0.62 0.01 4 990.0
20260507111648 73 358 0.9 3.5 0.00 0.62 0.01 4 990.0
20260507110201 72 6 0.9 3.5 0.00 0.62 0.01 4 990.1
20260507110148 72 264 1.7 4.3 0.00 0.62 0.01 4 990.1
20260507104648 68 16 2.6 5.2 0.00 0.62 0.01 5 990.1
20260507103201 68 359 0.9 2.6 0.00 0.62 0.01 5 990.4
20260507103149 68 327 0.9 1.7 0.00 0.62 0.01 5 990.4
20260507101701 68 10 0.0 1.7 0.00 0.62 0.01 5 990.3
20260507101649 68 20 0.0 1.7 0.00 0.62 0.01 5 990.3
20260507100201 68 64 0.9 3.5 0.00 0.62 0.01 6 990.5
20260507100148 69 357 2.6 3.5 0.00 0.62 0.01 6 990.5
20260507094701 69 328 1.7 3.5 0.00 0.62 0.01 5 990.4
20260507094648 69 256 1.7 3.5 0.00 0.62 0.01 5 990.4
20260507093201 70 26 1.7 3.5 0.00 0.62 0.01 5 990.4
20260507093148 71 39 0.9 2.6 0.00 0.62 0.01 5 990.4
20260507091701 67 351 0.9 2.6 0.00 0.62 0.01 5 990.2
20260507091649 67 326 0.9 2.6 0.00 0.62 0.01 5 990.2
20260507090201 70 40 0.0 1.7 0.00 0.62 0.01 6 990.4
20260507090148 70 36 0.0 0.9 0.00 0.62 0.01 5 990.4
20260507084701 68 6 0.9 1.7 0.00 0.62 0.01 6 990.3
20260507084648 68 324 0.9 2.6 0.00 0.62 0.01 6 990.3
20260507083148 71 292 3.5 5.2 0.00 0.62 0.01 5 990.4
20260507081649 64 29 0.0 2.6 0.00 0.62 0.01 6 990.4
20260507080149 66 15 0.0 0.9 0.00 0.62 0.01 7 990.1
20260507074648 62 52 0.0 1.7 0.00 0.62 0.01 7 990.2
20260507073148 60 22 0.0 2.6 0.00 0.62 0.01 7 989.9
20260507071648 59 15 0.0 1.7 0.00 0.62 0.01 8 989.9
20260507070202 61 71 0.0 0.0 0.00 0.62 0.01 7 989.5
20260507070149 61 44 0.0 0.9 0.00 0.62 0.01 7 989.5
20260507064701 60 26 0.0 0.9 0.00 0.62 0.01 8 989.6
20260507064649 60 26 0.0 0.9 0.00 0.62 0.01 7 989.6
20260507063201 66 30 0.0 0.0 0.00 0.62 0.01 6 989.9
20260507063148 65 16 0.0 0.0 0.00 0.62 0.01 7 989.9
20260507061702 65 22 0.0 0.0 0.00 0.62 0.01 6 989.8
20260507061648 65 21 0.0 0.0 0.00 0.62 0.01 6 989.8
20260507060201 62 33 0.0 0.0 0.00 0.62 0.01 7 989.7
20260507060148 62 32 0.0 0.0 0.00 0.62 0.01 7 989.7
20260507054701 61 16 0.0 0.0 0.00 0.63 0.01 7 989.6
20260507054649 61 16 0.0 0.0 0.00 0.63 0.01 7 989.6
20260507053148 53 17 0.0 0.0 0.00 0.63 0.01 8 989.3
20260507051701 52 53 0.0 0.9 0.00 0.63 0.01 9 989.2
20260507051648 52 61 0.0 0.0 0.00 0.63 0.01 9 989.2
20260507050148 53 22 0.0 0.0 0.00 0.63 0.01 9 989.4
20260507044701 49 5 0.9 0.9 0.00 0.63 0.01 9 989.3
20260507044648 49 348 0.9 0.9 0.00 0.63 0.01 9 989.3
20260507043149 47 18 0.0 0.0 0.00 0.63 0.01 9 989.2
20260507041648 48 24 0.0 0.0 0.00 0.63 0.01 9 988.6
20260507040148 48 15 0.0 0.0 0.00 0.63 0.01 9 988.7
20260507034648 48 260 2.6 3.5 0.01 0.64 0.01 9 988.6
20260507033149 48 328 0.9 1.7 0.01 0.64 0.01 9 988.6
20260507031649 49 233 1.7 2.6 0.01 0.64 0.01 9 988.5
20260507030203 50 310 0.9 1.7 0.01 0.64 0.01 9 988.9
20260507030148 50 314 0.9 1.7 0.01 0.64 0.01 9 988.9
20260507024701 50 11 0.0 0.9 0.00 0.63 0.00 9 988.7
20260507024648 50 4 0.0 1.7 0.00 0.63 0.00 9 988.7
20260507023148 50 6 0.0 0.0 0.00 0.63 0.00 9 988.7
20260507021702 50 14 0.0 0.0 0.00 0.63 0.00 9 988.7
20260507021649 50 14 0.0 0.9 0.00 0.63 0.00 9 988.7
20260507020202 50 358 0.0 0.9 0.00 0.63 0.00 9 988.6
20260507020149 50 316 0.0 0.9 0.00 0.63 0.00 9 988.6
20260507014702 51 28 0.0 0.9 0.00 0.63 0.00 9 988.5
20260507014648 51 33 0.0 0.9 0.00 0.63 0.00 9 988.5
20260507013148 51 26 0.0 0.0 0.00 0.63 0.00 9 988.3
20260507011701 52 8 0.9 0.9 0.00 0.63 0.00 9 988.3
20260507011648 52 355 0.9 0.9 0.00 0.63 0.00 9 988.3
20260507010202 52 203 0.9 2.6 0.00 0.63 0.00 9 988.5
20260507010149 52 77 0.9 2.6 0.00 0.63 0.00 9 988.5